Retour au catalogue

THORAD AGENA D DEB

ActifPO
NORAD 4929·DEBRIS·🇺🇸 United States

Lancé Apr 8, 1970 depuis Vandenberg Space Force Base

Loading…

Prochains Passages (prochaines 24 heures)

TLE

FraisSource: Space-Track

Époque: Sep 13, 2026, 04:16 UTC

1 04929U 70025FV  26256.17839303  .00000239  00000-0  99194-3 0  9992
2 04929  99.6759 233.8729 0447594 246.5893 177.6542 12.65774062595668

Suivez THORAD AGENA D DEB en temps réel avec AllMySat

Download on the App Store